Location: �couen
(49.0206°N, 2.3831°E)
Time: 21:49:15
(UTC+00:00)

ATLAS 3B R/B - Pass Details

Date: 27 May 2022
Orbit: 976 x 1218 km, 63.8° (Epoch: 20 June)

Event Time Altitude Azimuth Distance (km) Brightness Sun altitude
Rises 22:00:06 0° 317° (NW) 3,957 7.2 -15.6°
Reaches altitude 10° 22:02:46 10° 314° (NW) 3,028 6.2 -15.8°
Maximum altitude 22:09:53 61° 237° (WSW) 1,324 3.1 -16.3°
Enters shadow 22:14:42 23° 165° (SSE) 2,286 3.8 -16.6°
